User: anonymous   Login
Location: Dead Woman Crossing
(43.5369°N, 106.3228°W)
Time: 09:11:46
(UTC+00:00)
Language:

COSMOS 2251 DEB - Orbit

View from above orbital plane
View from above orbital plane
View from above satellite
View from above satellite

Ground track
Ground track

The orbit data is extracted from the following two-line orbital elements,

1 36073U 93036AYL 24062.37597581  .00000746  00000-0  27893-3 0  9998
2 36073  74.0302  73.4140 0026833 299.9040  59.9446 14.33381671758544
Epoch (UTC): 02 March 2024 09:01:24
Eccentricity: 0.0026833
inclination: 74.0302°
perigee height: 761 km
apogee height: 799 km
right ascension of ascending node: 73.4140°
argument of perigee: 299.9040°
revolutions per day: 14.33381671
mean anomaly at epoch: 59.9446°
orbit number at epoch: 75854

The dashed part of the orbit path shows where the satellite is in the earth's shadow,  

DLR